Location: Grand Rapids
(42.9630°N, 85.6680°W)
Time: 06:50:33
(UTC-04:00)

Tiros 1 - Pass Details

Date: 22 April 2025
Orbit: 620 x 652 km, 48.4° (Epoch: 13 May)

Event Time Altitude Azimuth Distance (km) Brightness Sun altitude
Exits shadow 05:43:52 16° 229° (SW) 1,666 8.6 -11.8°
Maximum altitude 05:47:33 67° 149° (SSE) 704 7.3 -11.2°
Drops below altitude 10° 05:52:16 10° 67° (ENE) 2,057 11.3 -10.4°
Sets 05:54:37 0° 65° (ENE) 2,969 12.9 -10.1°
